TimeCDT,TemperatureF,Dew PointF,Humidity,Sea Level PressureIn,VisibilityMPH,Wind Direction,Wind SpeedMPH,Gust SpeedMPH,PrecipitationIn,Events,Conditions,WindDirDegrees,DateUTC
12:53 AM,61.0,57.9,90,29.86,10.0,South,4.6,-,N/A,,Clear,180,2013-05-17 05:53:00
1:53 AM,59.0,57.9,96,29.86,9.0,South,4.6,-,N/A,,Clear,170,2013-05-17 06:53:00
2:25 AM,60.8,57.2,88,29.87,9.0,SSE,5.8,-,N/A,,Mostly Cloudy,160,2013-05-17 07:25:00
2:50 AM,60.8,57.2,88,29.86,9.0,SSE,4.6,-,N/A,,Scattered Clouds,160,2013-05-17 07:50:00
2:53 AM,60.1,57.9,93,29.84,9.0,SSE,4.6,-,N/A,,Partly Cloudy,150,2013-05-17 07:53:00
3:53 AM,59.0,57.9,96,29.85,10.0,SSE,3.5,-,N/A,,Partly Cloudy,150,2013-05-17 08:53:00
4:06 AM,59.0,57.2,94,29.87,9.0,Calm,Calm,-,N/A,,Mostly Cloudy,0,2013-05-17 09:06:00
4:35 AM,60.8,57.2,88,29.88,7.0,Calm,Calm,-,N/A,,Overcast,0,2013-05-17 09:35:00
4:53 AM,60.1,59.0,96,29.86,6.0,South,4.6,-,N/A,,Overcast,170,2013-05-17 09:53:00
5:53 AM,60.1,59.0,96,29.86,5.0,SSE,4.6,-,N/A,,Overcast,150,2013-05-17 10:53:00
7:03 AM,60.8,59.0,94,29.91,4.0,Calm,Calm,-,N/A,,Overcast,0,2013-05-17 12:03:00
7:53 AM,61.0,60.1,97,29.91,6.0,Calm,Calm,-,N/A,,Overcast,0,2013-05-17 12:53:00
8:53 AM,62.1,60.1,93,29.93,6.0,South,3.5,-,N/A,,Overcast,190,2013-05-17 13:53:00
9:53 AM,63.0,61.0,93,29.93,6.0,Calm,Calm,-,N/A,,Overcast,0,2013-05-17 14:53:00
10:53 AM,64.9,61.0,87,29.93,9.0,South,4.6,-,N/A,,Overcast,180,2013-05-17 15:53:00
11:04 AM,66.2,60.8,83,29.95,10.0,Variable,3.5,-,N/A,,Overcast,0,2013-05-17 16:04:00
11:15 AM,66.2,60.8,83,29.94,10.0,Calm,Calm,-,N/A,,Overcast,0,2013-05-17 16:15:00
11:53 AM,68.0,60.1,76,29.93,10.0,SSE,4.6,-,N/A,,Overcast,150,2013-05-17 16:53:00
12:53 PM,69.1,61.0,75,29.92,10.0,South,4.6,-,N/A,,Overcast,180,2013-05-17 17:53:00
1:25 PM,69.8,60.8,73,29.93,10.0,SE,5.8,-,N/A,,Overcast,130,2013-05-17 18:25:00
2:53 PM,73.0,60.1,64,29.90,10.0,SSW,5.8,-,N/A,,Overcast,200,2013-05-17 19:53:00
3:53 PM,73.9,59.0,59,29.89,10.0,SE,4.6,-,N/A,,Overcast,140,2013-05-17 20:53:00
4:53 PM,73.9,60.1,62,29.88,10.0,SSE,8.1,-,N/A,,Overcast,160,2013-05-17 21:53:00
5:53 PM,73.9,59.0,59,29.88,10.0,SSE,6.9,-,N/A,,Mostly Cloudy,150,2013-05-17 22:53:00
6:53 PM,75.0,59.0,57,29.87,10.0,SE,5.8,-,N/A,,Clear,140,2013-05-17 23:53:00
7:53 PM,73.0,59.0,61,29.87,10.0,Calm,Calm,-,N/A,,Partly Cloudy,0,2013-05-18 00:53:00
8:53 PM,70.0,59.0,68,29.88,10.0,SE,3.5,-,N/A,,Clear,130,2013-05-18 01:53:00
9:53 PM,69.1,59.0,70,29.89,10.0,ESE,3.5,-,N/A,,Clear,120,2013-05-18 02:53:00
10:53 PM,68.0,59.0,73,29.90,10.0,ESE,3.5,-,N/A,,Clear,110,2013-05-18 03:53:00
11:53 PM,66.9,59.0,76,29.91,10.0,SE,3.5,-,N/A,,Clear,130,2013-05-18 04:53:00